Flag for U.S.A. Weather past 2 weeks in Jersey City, New Jersey, U.S.A.

Now
83 °F

Broken clouds.


Feels Like: 83 °F
Forecast: 67 / 81 °F
Wind: 20 mph from West

Location: Newark International Airport

Current Time: Jul 28, 2014 at 6:43:08 PM

Latest Report: Jul 28, 2014 at 5:51 PM


Visibility: 10 mi

Pressure: 29.55 "Hg

Humidity: 43%

Dew point: 58 °F

Location of Jersey CityLocation

Historic Weather in Jersey City — Graph

°F

Jersey City temperature yesterday

Maximum temperature yesterday: 89 °F (at 2:51 PM)
Minimum temperature yesterday: 70 °F (at 2:51 AM)
Average temperature yesterday: 79 °F

Past Weeks' High & Low Weather Summary

 TemperatureHumidityPressure
High92 °F (Jul 23, 5:51 PM)100% (Jul 15, 9:02 PM)30.24 "Hg (Jul 15, 9:02 PM)
Low65 °F (Jul 17, 5:51 AM)32% (Jul 18, 5:51 PM)29.52 "Hg (Jul 28, 1:51 PM)
Average76 °F67%29.95 "Hg
* Reported Jul 13 4:51 PM — Jul 28 4:51 PM, Jersey City, Weather by CustomWeather, © 2014

Note: Actual official high and low records may vary slightly from our data, if they occured in-between our weather recording intervals... More about our weather records

Advertising

Jersey City weather history for previous 24 hours

 ConditionsComfort  
Time TempWeatherWind HumidityBarometerVisibility
4:51 PM
Jul 28
83 °FScattered clouds.23 mph44%29.54 "Hg10 mi
3:51 PM83 °FBroken clouds.21 mph46%29.53 "Hg10 mi
2:51 PM83 °FLight rain. Broken clouds.21 mph48%29.53 "Hg10 mi
1:51 PM84 °FScattered clouds.15 mph48%29.52 "Hg10 mi
12:51 PM82 °FPartly sunny.20 mph53%29.53 "Hg10 mi
11:51 AM80 °FScattered clouds.16 mph60%29.54 "Hg10 mi
10:51 AM75 °FPartly sunny.12 mph76%29.56 "Hg10 mi
9:51 AM73 °FMostly cloudy.9 mph81%29.55 "Hg10 mi
8:51 AM73 °FPartly sunny.7 mph81%29.56 "Hg10 mi
7:51 AM72 °FMostly cloudy.7 mph84%29.56 "Hg10 mi
6:51 AM71 °FMostly cloudy.3 mph87%29.56 "Hg10 mi
5:51 AM70 °FMostly cloudy.3 mph90%29.55 "Hg10 mi
4:51 AM70 °FPassing clouds.5 mph93%29.54 "Hg10 mi
3:51 AM71 °FLight rain. Overcast.7 mph90%29.56 "Hg10 mi
2:51 AM75 °FMostly cloudy.9 mph94%29.57 "Hg10 mi
1:51 AM74 °FThunderstorms. Fog.3 mph94%29.59 "Hg6 mi
12:51 AM77 °FThunderstorms. Overcast.14 mph88%29.65 "Hg10 mi
11:51 PM
Jul 27
79 °FThunderstorms. Overcast.6 mph82%29.63 "Hg10 mi
10:51 PM81 °FMostly cloudy.9 mph74%29.67 "Hg10 mi
9:51 PM82 °FMostly cloudy.10 mph70%29.67 "Hg10 mi
8:51 PM84 °FCloudy.7 mph55%29.66 "Hg10 mi
7:51 PM86 °FBroken clouds.6 mph46%29.66 "Hg10 mi
6:51 PM88 °FBroken clouds.10 mph43%29.67 "Hg10 mi
Weather by CustomWeather, © 2014

See weather overviewHow to use our weather pages